Home   Weather   Miramichi   Past weeks
Flag for Canada

Past Weather in Miramichi, New Brunswick, Canada — Yesterday and Last 2 Weeks

Now
21 °F

Ice fog.


Feels Like: 21 °F
Forecast: 36 / 26 °F
Wind: No wind

Location: Bathurst Airport

Current Time: Nov 20, 2019 at 6:32:24 am

Latest Report: Nov 20, 2019 at 6:17 am


Visibility: 1 mi

Pressure: 29.99 "Hg

Humidity: 93%

Dew Point: 19 °F

Location of MiramichiLocation

Past Weather in Miramichi — Graph

°F

Miramichi Temperature Yesterday

Maximum temperature yesterday: 36 °F (at 1:39 am)
Minimum temperature yesterday: 30 °F (at 5:22 am)
Average temperature yesterday: 32 °F

High & Low Weather Summary for the Past Weeks

 TemperatureHumidityPressure
High48 °F (Nov 5, 3:00 pm)100% (Nov 6, 3:49 am)30.51 "Hg (Nov 6, 3:49 am)
Low3 °F (Nov 18, 8:00 am)37% (Nov 9, 2:00 pm)29.48 "Hg (Nov 13, 5:18 am)
Average28 °F77%29.99 "Hg
* Reported Nov 5 5:00 am — Nov 20 5:00 am, Miramichi. Weather by CustomWeather, © 2019

Note: Actual official high and low records may vary slightly from our data, if they occured in-between our weather recording intervals... More about our weather records

Advertising

Miramichi Weather History for the Previous 24 Hours

Scroll right to see more
 ConditionsComfort  
Time TempWeatherWind HumidityBarometerVisibility
5:00 am
Wed, Nov 20
28 °FClear.No wind93%29.96 "Hg9 mi
4:27 am32 °FPassing clouds.2 mph93%29.95 "Hg9 mi
4:17 am32 °FLight snow. Passing clouds.2 mph93%29.96 "Hg9 mi
3:00 am30 °FOvercast.No wind100%29.93 "Hg9 mi
2:00 am30 °FOvercast.2 mph100%29.91 "Hg9 mi
1:00 am30 °FOvercast.No wind100%29.91 "Hg9 mi
12:00 am32 °FMostly cloudy.No wind93%29.91 "Hg9 mi
11:35 pm
Tue, Nov 19
32 °FLight snow. Mostly cloudy.2 mph93%29.92 "Hg6 mi
11:03 pm30 °FLight snow. Low clouds.2 mph100%29.92 "Hg1 mi
10:00 pm32 °FLight snow. Dense fog.3 mph93%29.92 "Hg1 mi
9:00 pm32 °FLight snow. Overcast.3 mph93%29.91 "Hg1 mi
8:00 pm32 °FOvercast.6 mph87%29.88 "Hg9 mi
7:27 pm32 °FLight rain. Overcast.6 mph87%29.86 "Hg9 mi
7:22 pm32 °FLight snow. Overcast.6 mph87%29.86 "Hg9 mi
7:08 pm32 °FLight rain. Overcast.6 mph93%29.85 "Hg9 mi
6:44 pm32 °FLight snow. Overcast.8 mph93%29.85 "Hg2 mi
6:01 pm32 °FLight snow. Overcast.7 mph93%29.83 "Hg2 mi
5:21 pm32 °FLight snow. Overcast.7 mph93%29.81 "Hg2 mi
5:03 pm34 °FLight snow. Overcast.5 mph87%29.80 "Hg5 mi
4:39 pm34 °FLight rain. Overcast.5 mph81%29.79 "Hg9 mi
4:22 pm34 °FLight mixture of precip. Overcast.3 mph81%29.78 "Hg9 mi
4:16 pm34 °FLight snow. More clouds than sun.3 mph81%29.78 "Hg9 mi
3:43 pm34 °FOvercast.2 mph81%29.76 "Hg9 mi
3:39 pm34 °FLight rain. Overcast.2 mph81%29.76 "Hg9 mi
3:16 pm34 °FLight rain. Overcast.3 mph81%29.75 "Hg9 mi
2:00 pm34 °FMostly cloudy.5 mph81%29.72 "Hg9 mi
1:35 pm32 °FOvercast.6 mph87%29.73 "Hg9 mi
1:21 pm32 °FLight mixture of precip. Mostly cloudy.7 mph87%29.73 "Hg9 mi
1:17 pm32 °FLight snow. Overcast.9 mph87%29.73 "Hg9 mi
12:59 pm32 °FLight snow. Overcast.7 mph87%29.74 "Hg6 mi
12:41 pm32 °FLight snow. Low clouds.8 mph93%29.74 "Hg2 mi
12:19 pm32 °FLight snow. Mostly cloudy.8 mph87%29.75 "Hg2 mi
11:36 am30 °FLight snow. More clouds than sun.8 mph93%29.76 "Hg6 mi
11:03 am30 °FLight snow. Low clouds.9 mph93%29.77 "Hg1 mi
11:00 am30 °FLight snow. Low clouds.10 mph93%29.77 "Hg1 mi
10:25 am30 °FLight snow. Ice fog.7 mph93%29.78 "Hg1 mi
10:00 am30 °FLight snow. Overcast.7 mph93%29.79 "Hg1 mi
9:44 am30 °FLight snow. Overcast.8 mph93%29.78 "Hg2 mi
9:39 am30 °FLight snow. Overcast.6 mph93%29.78 "Hg2 mi
9:00 am30 °FLight snow. Low clouds.9 mph93%29.79 "Hg1 mi
8:16 am30 °FLight snow. Low clouds.7 mph93%29.79 "Hg2 mi
7:35 am30 °FLight snow. Mostly cloudy.8 mph93%29.79 "Hg1 mi
7:24 am30 °FLight snow. Overcast.7 mph80%29.78 "Hg5 mi
7:00 am32 °FLight snow. Overcast.9 mph69%29.77 "Hg9 mi
6:50 am32 °FLight snow. Overcast.7 mph69%29.77 "Hg8 mi
6:36 am32 °FLight snow. Overcast.7 mph69%29.76 "Hg9 mi
6:17 am30 °FOvercast.6 mph80%29.76 "Hg9 mi
6:00 am30 °FLight snow. Mostly cloudy.6 mph80%29.76 "Hg9 mi
Weather by CustomWeather, © 2019

See weather overview